This demonstration page uses our WeatherBlox Daily Observations layout. Learn more.

Left ArrowRight Arrow

39.95238, -75.16362

Hourly Observations for June 3, 2022

Temp ( °F °C ) Dew Point ( °F °C ) Humidity (%) Winds ( mph kmh ) Pressure ( in mb ) Visibility ( mi km ) Precip ( " mm )
12:29 am 00:29 Mostly Cloudy 73 22.8 69 20.6 87 87 WNW 6 9 29.72 1006 8 13 0.00 0.00
12:41 am 00:41 Cloudy with Mist and Fog 73 22.8 70 21.1 90 90 WNW 5 7 29.72 1006 6 10 0.00 0.00
12:54 am 00:54 Cloudy with Mist and Fog 73 22.8 70 21.1 90 90 NW 3 6 29.71 1006 6 10 0.00 0.00
1:17 am 01:17 Mostly Cloudy 73 22.8 69 20.6 87 87 Calm 29.71 1006 8 13 0.00 0.00
1:54 am 01:54 Mostly Cloudy 73 22.8 69 20.6 87 87 SW 6 9 29.71 1006 8 13 0.00 0.00
2:54 am 02:54 Partly Cloudy 72 22.2 69 20.6 91 91 NW 3 6 29.71 1006 7 11 0.00 0.00
3:54 am 03:54 Partly Cloudy 71 21.7 68 20 90 90 Calm 29.70 1006 8 13 0.00 0.00
4:54 am 04:54 Cloudy 71 21.7 67 19.4 87 87 N 5 7 29.71 1006 8 13 0.00 0.00
5:54 am 05:54 Mostly Cloudy 71 21.7 67 19.4 87 87 NW 5 7 29.72 1006 10 16 0.00 0.00
6:54 am 06:54 Cloudy 71 21.7 67 19.4 87 87 NW 8 13 29.74 1007 7 11 0.00 0.00
7:54 am 07:54 Cloudy 72 22.2 67 19.4 84 84 NNW 9 15 29.75 1007 7 11 0.00 0.00
8:36 am 08:36 Mostly Cloudy 73 22.8 66 18.9 79 79 NNW 13 20 29.76 1008 10 16 0.00 0.00
8:54 am 08:54 Mostly Cloudy 73 22.8 66 18.9 79 79 N 14 22 29.76 1008 10 16 0.00 0.00
9:40 am 09:40 Mostly Cloudy 71 21.7 61 16.1 71 71 N 12 19 29.78 1008 10 16 0.00 0.00
9:54 am 09:54 Mostly Cloudy 72 22.2 60 15.6 66 66 N 14 22 29.77 1008 10 16 0.00 0.00
10:29 am 10:29 Cloudy 73 22.8 61 16.1 66 66 N 10 17 29.79 1009 10 16 0.00 0.00
10:47 am 10:47 Mostly Cloudy 73 22.8 60 15.6 64 64 NNW 13 20 29.79 1009 10 16 0.00 0.00
10:54 am 10:54 Mostly Cloudy 73 22.8 60 15.6 64 64 NNW 14 22 29.79 1009 10 16 0.00 0.00
11:54 am 11:54 Mostly Cloudy 77 25 60 15.6 56 56 N 9 15 29.79 1009 10 16 0.00 0.00
12:54 pm 12:54 Mostly Cloudy 77 25 58 14.4 52 52 NW 12 19 29.79 1009 10 16 0.00 0.00
1:54 pm 13:54 Mostly Cloudy 79 26.1 59 15 50 50 NNW 12 19 29.78 1009 10 16 0.00 0.00
2:54 pm 14:54 Mostly Cloudy 80 26.7 55 12.8 42 42 WNW 9 15 29.78 1009 10 16 0.00 0.00
3:54 pm 15:54 Mostly Cloudy 80 26.7 52 11.1 38 38 W 13 20 29.78 1009 10 16 0.00 0.00
4:54 pm 16:54 Mostly Cloudy 79 26.1 48 8.9 34 34 W 15 24 29.80 1009 10 16 0.00 0.00
5:54 pm 17:54 Mostly Cloudy 80 26.7 46 7.8 30 30 WNW 12 19 29.80 1009 10 16 0.00 0.00
6:54 pm 18:54 Mostly Cloudy 78 25.6 47 8.3 33 33 NNW 7 11 29.80 1009 10 16 0.00 0.00
7:54 pm 19:54 Mostly Cloudy 78 25.6 46 7.8 32 32 WNW 6 9 29.81 1010 10 16 0.00 0.00
8:54 pm 20:54 Mostly Cloudy 75 23.9 48 8.9 39 39 W 7 11 29.82 1010 10 16 0.00 0.00
9:54 pm 21:54 Partly Cloudy 74 23.3 49 9.4 41 41 WSW 7 11 29.84 1010 10 16 0.00 0.00
10:54 pm 22:54 Partly Cloudy 72 22.2 49 9.4 44 44 W 7 11 29.84 1010 10 16 0.00 0.00
11:54 pm 23:54 Partly Cloudy 70 21.1 50 10 49 49 Calm 29.85 1011 10 16 0.00 0.00

Powered by AerisWeather